When you browse on this site, cookies collect data to enhance your experience and personalize the content and advertising you see.
Visit our Privacy Policy to learn more. By continuing to use the site, you agree to this use of cookies and data.
  • Em Portugal
  • Lista de países
  • Para 7 dias
  • Temperatura da água
  • Mapas de satélite
  • Mapa do tempo
  • Widgets de tempo
  • user-avatar
    Iniciar Sessão

    Previsão horária em Borowo

    Hoje, 22 Abril, Segunda-feira

    Tempo Temperatura Precipitação Vento Pressão Humidade
    00:00 +8°C° 0 mm 3 m/s 757 mmHg 68%
    01:00 +7°C° 0 mm 3 m/s 757 mmHg 74%
    02:00 +5°C° 0 mm 3 m/s 757 mmHg 80%
    03:00 +5°C° 0 mm 3 m/s 757 mmHg 85%
    04:00 +4°C° 0 mm 3 m/s 757 mmHg 90%
    05:00 +5°C° 0 mm 4 m/s 757 mmHg 84%
    06:00 +6°C° 0 mm 4 m/s 757 mmHg 79%
    07:00 +7°C° 0 mm 5 m/s 757 mmHg 73%
    08:00 +8°C° 0 mm 5 m/s 757 mmHg 70%
    09:00 +10°C° 0 mm 6 m/s 757 mmHg 66%
    10:00 +11°C° 0 mm 7 m/s 757 mmHg 63%
    11:00 +12°C° 0 mm 7 m/s 757 mmHg 63%
    12:00 +12°C° 0 mm 7 m/s 757 mmHg 63%
    13:00 +12°C° 0 mm 7 m/s 757 mmHg 63%
    14:00 +14°C° 0 mm 7 m/s 756 mmHg 61%
    15:00 +15°C° 0 mm 7 m/s 756 mmHg 59%
    16:00 +16°C° 0 mm 7 m/s 756 mmHg 57%
    17:00 +15°C° 0 mm 6 m/s 756 mmHg 59%
    18:00 +14°C° 0 mm 6 m/s 756 mmHg 62%
    19:00 +13°C° 0 mm 6 m/s 755 mmHg 65%
    20:00 +13°C° 0 mm 6 m/s 756 mmHg 62%
    21:00 +11°C° 0 mm 6 m/s 756 mmHg 60%
    22:00 +11°C° 0 mm 7 m/s 756 mmHg 57%
    23:00 +10°C° 0 mm 7 m/s 756 mmHg 57%

    Amanhã, 23 Abril, Terça-feira

    Tempo Temperatura Precipitação Vento Pressão Humidade
    00:00 +9°C° 0 mm 7 m/s 756 mmHg 56%
    01:00 +9°C° 0 mm 7 m/s 756 mmHg 56%
    02:00 +8°C° 0 mm 7 m/s 755 mmHg 56%
    03:00 +7°C° 0 mm 8 m/s 755 mmHg 57%
    04:00 +7°C° 0 mm 8 m/s 755 mmHg 58%
    05:00 +7°C° 0 mm 8 m/s 755 mmHg 58%
    06:00 +8°C° 0 mm 9 m/s 754 mmHg 59%
    07:00 +8°C° 0 mm 9 m/s 754 mmHg 60%
    08:00 +11°C° 0 mm 9 m/s 754 mmHg 58%
    09:00 +12°C° 0 mm 9 m/s 754 mmHg 57%
    10:00 +13°C° 0 mm 9 m/s 754 mmHg 56%
    11:00 +14°C° 0 mm 10 m/s 753 mmHg 53%
    12:00 +16°C° 0 mm 10 m/s 753 mmHg 51%
    13:00 +18°C° 0 mm 10 m/s 753 mmHg 48%
    14:00 +18°C° 0 mm 10 m/s 752 mmHg 49%
    15:00 +18°C° 0 mm 10 m/s 752 mmHg 49%
    16:00 +18°C° 0 mm 10 m/s 752 mmHg 50%
    17:00 +17°C° 0 mm 9 m/s 752 mmHg 53%
    18:00 +16°C° 0 mm 7 m/s 751 mmHg 56%
    19:00 +15°C° 0 mm 6 m/s 751 mmHg 59%
    20:00 +14°C° 0 mm 6 m/s 751 mmHg 60%
    21:00 +13°C° 0 mm 6 m/s 751 mmHg 62%
    22:00 +13°C° 0 mm 6 m/s 752 mmHg 64%
    23:00 +11°C° 0.1 mm 6 m/s 751 mmHg 69%

    Depois de amanhã, 24 Abril, Quarta-feira

    Tempo Temperatura Precipitação Vento Pressão Humidade
    00:00 +11°C° 0.1 mm 7 m/s 751 mmHg 73%
    01:00 +10°C° 0.1 mm 7 m/s 751 mmHg 78%
    02:00 +10°C° 0.1 mm 7 m/s 751 mmHg 79%
    03:00 +10°C° 0.1 mm 7 m/s 751 mmHg 80%
    04:00 +10°C° 0.1 mm 7 m/s 751 mmHg 81%
    05:00 +10°C° 0 mm 7 m/s 751 mmHg 79%
    06:00 +10°C° 0 mm 7 m/s 751 mmHg 78%
    07:00 +11°C° 0 mm 7 m/s 751 mmHg 76%
    08:00 +12°C° 0 mm 7 m/s 751 mmHg 72%
    09:00 +15°C° 0 mm 8 m/s 751 mmHg 69%
    10:00 +16°C° 0 mm 8 m/s 751 mmHg 65%
    11:00 +17°C° 0 mm 7 m/s 751 mmHg 64%
    12:00 +18°C° 0 mm 7 m/s 752 mmHg 63%
    13:00 +18°C° 0 mm 7 m/s 752 mmHg 62%
    14:00 +20°C° 0 mm 6 m/s 751 mmHg 62%
    15:00 +20°C° 0 mm 6 m/s 751 mmHg 61%
    16:00 +21°C° 0 mm 6 m/s 751 mmHg 60%
    17:00 +20°C° 0 mm 5 m/s 751 mmHg 65%
    18:00 +17°C° 0 mm 5 m/s 751 mmHg 70%
    19:00 +17°C° 0 mm 4 m/s 751 mmHg 75%
    20:00 +16°C° 0 mm 5 m/s 752 mmHg 74%
    21:00 +15°C° 0 mm 5 m/s 752 mmHg 74%
    22:00 +15°C° 0 mm 5 m/s 752 mmHg 73%
    23:00 +14°C° 0 mm 5 m/s 752 mmHg 75%

    25 Abril, Quinta-feira

    Tempo Temperatura Precipitação Vento Pressão Humidade
    00:00 +14°C° 0 mm 5 m/s 752 mmHg 76%
    01:00 +13°C° 0 mm 4 m/s 752 mmHg 78%
    02:00 +13°C° 0 mm 4 m/s 752 mmHg 80%
    03:00 +13°C° 0 mm 4 m/s 752 mmHg 82%
    04:00 +12°C° 0 mm 4 m/s 752 mmHg 83%
    05:00 +13°C° 0 mm 4 m/s 752 mmHg 82%
    06:00 +14°C° 0 mm 4 m/s 752 mmHg 81%
    07:00 +15°C° 0 mm 5 m/s 753 mmHg 79%
    08:00 +17°C° 0 mm 4 m/s 753 mmHg 75%
    09:00 +19°C° 0 mm 4 m/s 753 mmHg 70%
    10:00 +21°C° 0 mm 3 m/s 753 mmHg 65%
    11:00 +22°C° 0 mm 3 m/s 753 mmHg 62%
    12:00 +22°C° 0 mm 3 m/s 753 mmHg 60%
    13:00 +24°C° 0 mm 3 m/s 753 mmHg 57%
    14:00 +25°C° 0 mm 2 m/s 753 mmHg 56%
    15:00 +25°C° 0 mm 2 m/s 753 mmHg 55%
    16:00 +25°C° 0 mm 2 m/s 753 mmHg 54%
    17:00 +24°C° 0.1 mm 1 m/s 753 mmHg 60%
    18:00 +22°C° 0.1 mm 1 m/s 753 mmHg 65%
    19:00 +21°C° 0.1 mm 1 m/s 753 mmHg 71%
    20:00 +19°C° 0.1 mm 2 m/s 753 mmHg 74%
    21:00 +18°C° 0.1 mm 2 m/s 753 mmHg 77%
    22:00 +17°C° 0.1 mm 2 m/s 753 mmHg 80%
    23:00 +17°C° 0 mm 2 m/s 753 mmHg 82%

    26 Abril, Sexta-feira

    Tempo Temperatura Precipitação Vento Pressão Humidade
    00:00 +16°C° 0 mm 2 m/s 752 mmHg 85%
    01:00 +15°C° 0 mm 2 m/s 752 mmHg 88%
    02:00 +15°C° 0 mm 2 m/s 752 mmHg 90%
    03:00 +14°C° 0 mm 2 m/s 751 mmHg 91%
    04:00 +14°C° 0 mm 2 m/s 751 mmHg 93%
    05:00 +14°C° 0 mm 3 m/s 751 mmHg 89%
    06:00 +16°C° 0 mm 3 m/s 750 mmHg 85%
    07:00 +17°C° 0 mm 3 m/s 750 mmHg 82%
    08:00 +19°C° 0 mm 3 m/s 750 mmHg 76%
    09:00 +21°C° 0 mm 3 m/s 749 mmHg 70%
    10:00 +22°C° 0 mm 3 m/s 749 mmHg 63%
    11:00 +24°C° 0 mm 3 m/s 749 mmHg 60%
    12:00 +25°C° 0 mm 3 m/s 748 mmHg 56%
    13:00 +26°C° 0 mm 3 m/s 748 mmHg 52%
    14:00 +26°C° 0 mm 3 m/s 748 mmHg 51%
    15:00 +27°C° 0 mm 3 m/s 748 mmHg 50%
    16:00 +27°C° 0 mm 3 m/s 747 mmHg 49%
    17:00 +23°C° 1.3 mm 4 m/s 748 mmHg 61%
    18:00 +21°C° 1.3 mm 5 m/s 748 mmHg 72%
    19:00 +17°C° 1.3 mm 6 m/s 749 mmHg 84%
    20:00 +16°C° 1.1 mm 7 m/s 749 mmHg 86%
    21:00 +14°C° 1.1 mm 7 m/s 750 mmHg 89%
    22:00 +11°C° 1.1 mm 8 m/s 751 mmHg 91%
    23:00 +11°C° 0.3 mm 8 m/s 751 mmHg 91%

    27 Abril, Sábado

    Tempo Temperatura Precipitação Vento Pressão Humidade
    00:00 +10°C° 0.3 mm 8 m/s 752 mmHg 90%
    01:00 +10°C° 0.3 mm 8 m/s 752 mmHg 90%
    02:00 +9°C° 0.1 mm 7 m/s 753 mmHg 89%
    03:00 +9°C° 0.1 mm 7 m/s 754 mmHg 89%
    04:00 +9°C° 0.1 mm 7 m/s 754 mmHg 89%
    05:00 +9°C° 0.1 mm 7 m/s 755 mmHg 88%
    06:00 +9°C° 0.1 mm 7 m/s 755 mmHg 87%
    07:00 +9°C° 0.1 mm 7 m/s 755 mmHg 86%
    08:00 +9°C° 0.1 mm 6 m/s 756 mmHg 85%
    09:00 +10°C° 0.1 mm 6 m/s 756 mmHg 85%
    10:00 +10°C° 0.1 mm 5 m/s 756 mmHg 85%
    11:00 +13°C° 0 mm 5 m/s 757 mmHg 77%
    12:00 +14°C° 0 mm 4 m/s 757 mmHg 69%
    13:00 +17°C° 0 mm 4 m/s 757 mmHg 61%
    14:00 +17°C° 0 mm 4 m/s 757 mmHg 59%
    15:00 +18°C° 0 mm 4 m/s 756 mmHg 56%
    16:00 +18°C° 0 mm 4 m/s 756 mmHg 54%
    17:00 +17°C° 0 mm 3 m/s 756 mmHg 59%
    18:00 +14°C° 0 mm 3 m/s 757 mmHg 64%
    19:00 +14°C° 0 mm 2 m/s 757 mmHg 69%
    20:00 +12°C° 0 mm 3 m/s 757 mmHg 73%
    21:00 +12°C° 0 mm 3 m/s 757 mmHg 77%
    22:00 +11°C° 0 mm 3 m/s 758 mmHg 81%
    23:00 +10°C° 0 mm 3 m/s 757 mmHg 84%
    Mostrar mais